Flag for Switzerland Weather past 2 weeks in Renens, Vaud, Switzerland

Now
81 °F

Warm.


Feels Like: 81 °F
Forecast: 62 / 91 °F
Wind: 10 mph from North

Location: Aigle

Current Time: Jul 1, 2015 at 2:09:47 PM

Latest Report: Jul 1, 2015 at 1:00 PM


Visibility: N/A

Pressure: 30.03 "Hg

Humidity: 43%

Dew point: 57 °F

Location of RenensLocation

Historic Weather in Renens — Graph

°F

Renens temperature yesterday

Maximum temperature yesterday: 85 °F (at 6:00 PM)
Minimum temperature yesterday: 57 °F (at 7:00 AM)
Average temperature yesterday: 71 °F

Past Weeks' High & Low Weather Summary

 TemperatureHumidityPressure
High85 °F (Jun 30, 6:00 PM)97% (Jun 17, 6:00 AM)30.22 "Hg (Jun 17, 6:00 AM)
Low47 °F (Jun 24, 7:00 AM)38% (Jun 30, 8:00 PM)29.77 "Hg (Jun 22, 10:00 PM)
Average65 °F68%30.07 "Hg
* Reported Jun 16 12:00 Noon — Jul 1 12:00 Noon, Renens, Weather by CustomWeather, © 2015

Note: Actual official high and low records may vary slightly from our data, if they occured in-between our weather recording intervals... More about our weather records

Advertising

Renens weather history for previous 24 hours

 ConditionsComfort  
Time TempWeatherWind HumidityBarometerVisibility
12:00 PM
Wed, Jul 1
80 °FWarm.8 mph48%30.04 "HgN/A
11:00 AM79 °FWarm.7 mph54%30.05 "HgN/A
10:00 AM77 °FWarm.5 mph61%30.06 "HgN/A
9:00 AM73 °FMild.2 mph61%30.07 "HgN/A
8:00 AM70 °FMild.No wind72%30.08 "HgN/A
7:00 AM59 °FCool.No wind93%30.11 "HgN/A
6:00 AM59 °FCool.1 mph92%30.11 "HgN/A
4:00 AM61 °FCool.2 mph87%30.08 "HgN/A
3:00 AM62 °FMild.3 mph82%30.07 "HgN/A
2:00 AM62 °FMild.2 mph82%30.08 "HgN/A
1:00 AM62 °FCool.No wind88%30.07 "HgN/A
12:00 AM65 °FMild.2 mph71%30.05 "HgN/A
11:00 PM
Tue, Jun 30
70 °FMild.2 mph62%30.04 "HgN/A
10:00 PM71 °FMild.1 mph70%30.02 "HgN/A
9:00 PM72 °FMild.2 mph76%30.00 "HgN/A
8:00 PM83 °FSunny.2 mph38%29.98 "Hg25 mi
6:00 PM85 °FWarm.9 mph44%29.96 "HgN/A
4:00 PM84 °FWarm.10 mph46%29.99 "HgN/A
3:00 PM83 °FWarm.9 mph45%30.01 "HgN/A
2:00 PM80 °FSunny.9 mph49%30.03 "Hg22 mi
Weather by CustomWeather, © 2015

See weather overviewHow to use our weather pages